Time,TemperatureF,DewpointF,PressureIn,WindDirection,WindDirectionDegrees,WindSpeedMPH,WindSpeedGustMPH,Humidity,HourlyPrecipIn,Conditions,Clouds,dailyrainin,SoftwareType,DateUTC
2013-10-05 05:23:00,56.0,54.0,29.95,North,0,0.0,0.0,93,0.06,,,2.26,,2013-10-05 10:23:00,
2013-10-05 05:53:00,56.0,54.0,29.91,North,0,0.0,0.0,93,0.08,,,2.28,,2013-10-05 10:53:00,
2013-10-05 06:22:00,56.0,54.0,29.91,North,0,0.0,0.0,93,0.02,,,2.28,,2013-10-05 11:22:00,
2013-10-05 06:52:00,56.0,54.0,29.92,ENE,68,0.0,0.0,93,0.00,,,2.28,,2013-10-05 11:52:00,
2013-10-05 07:22:00,56.0,54.0,29.89,North,0,0.0,0.0,93,0.00,,,2.28,,2013-10-05 12:22:00,
2013-10-05 07:52:00,56.0,54.0,29.89,ENE,68,0.0,0.0,93,0.00,,,2.28,,2013-10-05 12:52:00,
2013-10-05 08:22:00,57.0,55.0,29.89,North,0,0.0,0.0,93,0.00,,,2.28,,2013-10-05 13:22:00,
2013-10-05 08:42:00,57.0,55.0,29.90,North,0,0.0,0.0,93,0.00,,,2.28,,2013-10-05 13:42:00,
2013-10-05 08:52:00,57.0,55.0,29.91,North,0,0.0,0.0,93,0.00,,,2.28,,2013-10-05 13:52:00,
2013-10-05 09:22:00,58.0,56.0,29.90,North,0,0.0,0.0,93,0.00,,,2.28,,2013-10-05 14:22:00,
2013-10-05 09:52:00,58.0,56.0,29.89,North,0,0.0,0.0,93,0.00,,,2.28,,2013-10-05 14:52:00,
2013-10-05 10:22:00,59.0,57.0,29.90,North,0,0.0,0.0,93,0.00,,,2.28,,2013-10-05 15:22:00,
2013-10-05 10:53:00,59.0,57.0,29.89,North,0,0.0,0.0,93,0.00,,,2.28,,2013-10-05 15:53:00,
2013-10-05 11:23:00,59.0,57.0,29.90,North,0,0.0,0.0,93,0.00,,,2.26,,2013-10-05 16:23:00,
2013-10-05 11:43:00,60.0,58.0,29.91,North,0,0.0,0.0,93,0.00,,,2.26,,2013-10-05 16:43:00,
2013-10-05 11:53:00,60.0,58.0,29.91,North,0,0.0,0.0,93,0.00,,,2.26,,2013-10-05 16:53:00,
2013-10-05 12:22:00,60.0,58.0,29.89,North,0,0.0,0.0,93,0.00,,,2.26,,2013-10-05 17:22:00,
2013-10-05 12:52:00,61.0,59.0,29.88,North,0,0.0,0.0,93,0.00,,,2.26,,2013-10-05 17:52:00,
2013-10-05 13:22:00,61.0,59.0,29.87,North,0,0.0,0.0,93,0.00,,,2.26,,2013-10-05 18:22:00,
2013-10-05 13:52:00,62.0,60.0,29.87,North,0,0.0,0.0,93,0.00,,,2.26,,2013-10-05 18:52:00,
2013-10-05 14:22:00,62.0,60.0,29.86,North,0,0.0,0.0,93,0.00,,,0.28,,2013-10-05 19:22:00,
2013-10-05 14:52:00,62.0,60.0,29.84,North,0,0.0,0.0,93,0.00,,,0.28,,2013-10-05 19:52:00,
2013-10-05 15:22:00,62.0,60.0,29.81,North,0,0.0,0.0,93,0.02,,,0.30,,2013-10-05 20:22:00,
2013-10-05 15:52:00,62.0,60.0,29.81,North,0,0.0,0.0,93,0.02,,,0.30,,2013-10-05 20:52:00,
2013-10-05 16:22:00,62.0,60.0,29.80,North,0,0.0,0.0,93,0.00,,,0.30,,2013-10-05 21:22:00,
2013-10-05 16:54:00,62.0,60.0,29.80,North,0,0.0,0.0,94,0.00,,,0.30,,2013-10-05 21:54:00,
2013-10-05 17:24:00,62.0,60.0,29.82,North,0,0.0,0.0,93,0.00,,,0.30,,2013-10-05 22:24:00,
2013-10-05 17:53:00,62.0,60.0,29.81,North,0,0.0,0.0,93,0.00,,,0.30,,2013-10-05 22:53:00,
2013-10-05 18:22:00,62.0,60.0,29.79,North,0,0.0,0.0,93,0.00,,,0.30,,2013-10-05 23:22:00,
2013-10-05 18:53:00,62.0,60.0,29.78,North,0,0.0,0.0,93,0.00,,,0.30,,2013-10-05 23:53:00,
2013-10-05 19:12:00,62.0,60.0,29.77,North,0,0.0,0.0,93,0.00,,,0.30,,2013-10-06 00:12:00,
2013-10-05 19:23:00,61.0,59.0,29.76,North,0,0.0,0.0,93,0.00,,,0.30,,2013-10-06 00:23:00,
2013-10-05 19:52:00,61.0,59.0,29.76,North,0,0.0,0.0,93,0.00,,,0.30,,2013-10-06 00:52:00,
2013-10-05 20:22:00,61.0,59.0,29.76,North,0,0.0,0.0,93,0.00,,,0.30,,2013-10-06 01:22:00,
2013-10-05 20:42:00,61.0,59.0,29.75,North,0,0.0,0.0,93,0.00,,,0.30,,2013-10-06 01:42:00,
2013-10-05 20:52:00,60.0,58.0,29.76,North,0,0.0,0.0,93,0.02,,,0.32,,2013-10-06 01:52:00,
2013-10-05 21:10:00,60.0,58.0,29.73,North,0,0.0,0.0,93,0.12,,,0.42,,2013-10-06 02:10:00,
2013-10-05 21:22:00,60.0,58.0,29.74,North,0,0.0,0.0,93,0.12,,,0.42,,2013-10-06 02:22:00,
2013-10-05 21:42:00,60.0,58.0,29.73,North,0,0.0,0.0,93,0.12,,,0.42,,2013-10-06 02:42:00,
2013-10-05 21:52:00,60.0,58.0,29.73,North,0,0.0,0.0,93,0.12,,,0.42,,2013-10-06 02:52:00,
2013-10-05 22:02:00,60.0,58.0,29.73,North,0,0.0,0.0,93,0.12,,,0.42,,2013-10-06 03:02:00,